Perry, IA

1:42 PM CDT on April 24, 2017 (GMT -0500)
Perry Municipal

Weather History for KPRO - February, 2013

Change the Weather History Date:

Monday, February 18, 2013

  Actual Average Record
Temperature  
Mean Temperature 26 °F -  
Max Temperature 38 °F 35 °F 67 °F (1981)
Min Temperature 15 °F 17 °F -21 °F (1978)
Degree Days  
Heating Degree Days 38    
Moisture  
Dew Point 23 °F    
Average Humidity 80    
Maximum Humidity 95    
Minimum Humidity 68    
Precipitation  
Precipitation 0.00 in - - ()
Sea Level Pressure  
Sea Level Pressure 29.71 in    
Wind  
Wind Speed 12 mph (NW)    
Max Wind Speed 31 mph    
Max Gust Speed 38 mph    
Visibility 10 miles    
Events Snow    
Averages and records for this station are not official NWS values.
T = Trace of Precipitation, MM = Missing Value Source: NWS Daily Summary

Daily Weather History Graph

Daily Weather History Graph

Search for Another Location

Airport or City:

Trip Planner

Search our weather history database for the weather conditions in past years. The results will help you decide how hot, cold, wet, or windy it might be!

Date:

Astronomy

Feb. 18, 2013 Rise Set
Actual Time 7:07 AM CST 5:53 PM CST
Civil Twilight 6:39 AM CST 6:22 PM CST
Nautical Twilight 6:06 AM CST 6:54 PM CST
Astronomical Twilight 5:34 AM CST 7:27 PM CST
Moon 11:37 AM CST (2/18) 1:50 AM CST (2/18)
Length of Visible Light 11h 43m
Length of Day
10h 46m
First Quarter, 58% of the Moon is Illuminated
Feb 18
First Quarter
Feb 25
Full
Mar 4
Last Quarter
Mar 11
New
Mar 19
First Quarter

Hourly Weather History & Observations

Time (CST) Temp. Windchill Dew Point Humidity Pressure Visibility Wind Dir Wind Speed Gust Speed Precip Events Conditions
12:15 AM 34.3 °F 26.5 °F 28.4 °F 79% 29.61 in 10.0 mi SSE 10.4 mph - N/A   Clear
12:35 AM 34.3 °F 27.0 °F 28.4 °F 79% 29.60 in 10.0 mi SSE 9.2 mph - N/A   Clear
12:55 AM 34.0 °F 26.0 °F 28.4 °F 80% 29.59 in 10.0 mi SSE 10.4 mph - N/A   Clear
1:15 AM 33.6 °F 26.2 °F 28.4 °F 81% 29.59 in 10.0 mi SE 9.2 mph - N/A   Clear
1:35 AM 33.4 °F 25.9 °F 28.8 °F 83% 29.58 in 10.0 mi SSE 9.2 mph - N/A   Clear
2:15 AM 31.8 °F 26.2 °F 27.9 °F 85% 29.57 in 10.0 mi SE 5.8 mph - N/A   Clear
2:35 AM 32.0 °F 25.6 °F 28.2 °F 86% 29.56 in 10.0 mi SSE 6.9 mph - N/A   Clear
2:55 AM 31.8 °F 28.5 °F 28.0 °F 86% 29.57 in 10.0 mi SSE 3.5 mph - N/A   Clear
3:15 AM 32.9 °F - 28.2 °F 83% 29.57 in 10.0 mi Calm Calm - N/A   Clear
3:35 AM 31.6 °F 24.4 °F 27.7 °F 85% 29.58 in 10.0 mi NW 8.1 mph - N/A   Clear
3:55 AM 30.6 °F - 27.7 °F 89% 29.57 in 10.0 mi Calm Calm - N/A   Clear
4:15 AM 29.3 °F - 27.5 °F 93% 29.55 in 10.0 mi Calm Calm - N/A   Clear
4:35 AM 29.1 °F - 27.5 °F 94% 29.56 in 10.0 mi Calm Calm - N/A   Clear
4:55 AM 27.9 °F - 26.1 °F 93% 29.57 in 10.0 mi Calm Calm - N/A   Clear
5:35 AM 28.8 °F - 26.6 °F 92% 29.56 in 10.0 mi Calm Calm - N/A   Clear
5:55 AM 27.9 °F - 26.4 °F 94% 29.56 in 10.0 mi Calm Calm - N/A   Clear
6:15 AM 28.9 °F - 27.1 °F 93% 29.55 in 10.0 mi Calm Calm - N/A   Clear
6:35 AM 28.0 °F - 26.8 °F 95% 29.56 in 10.0 mi Calm Calm - N/A   Clear
6:55 AM 28.4 °F 22.2 °F 27.1 °F 95% 29.57 in 10.0 mi SSW 5.8 mph - N/A   Clear
7:15 AM 31.3 °F 24.7 °F 29.1 °F 92% 29.58 in 10.0 mi WNW 6.9 mph - N/A   Clear
7:35 AM 32.0 °F 23.6 °F 29.3 °F 90% 29.58 in 10.0 mi WNW 10.4 mph - N/A   Clear
7:55 AM 32.0 °F 24.8 °F 29.8 °F 92% 29.59 in 10.0 mi NW 8.1 mph - N/A   Clear
8:15 AM 33.1 °F 24.9 °F 30.9 °F 92% 29.60 in 10.0 mi NW 10.4 mph - N/A   Clear
8:35 AM 34.5 °F 26.7 °F 31.6 °F 89% 29.61 in 10.0 mi NW 10.4 mph - N/A   Clear
8:55 AM 36.3 °F 28.0 °F 32.0 °F 84% 29.61 in 10.0 mi NNW 12.7 mph 16.1 mph N/A   Clear
9:15 AM 36.5 °F 28.2 °F 32.0 °F 84% 29.60 in 10.0 mi NNW 12.7 mph 19.6 mph N/A   Clear
9:35 AM 37.8 °F 28.6 °F 32.0 °F 80% 29.60 in 10.0 mi NNW 16.1 mph 21.9 mph N/A   Clear
10:15 AM 38.5 °F 29.6 °F 32.0 °F 78% 29.62 in 10.0 mi NNW 16.1 mph 25.3 mph N/A   Mostly Cloudy
10:35 AM 37.9 °F 27.1 °F 31.8 °F 79% 29.63 in 10.0 mi NNW 23.0 mph 31.1 mph N/A   Overcast
10:55 AM 37.6 °F 27.1 °F 31.8 °F 80% 29.63 in 10.0 mi NNW 20.7 mph 27.6 mph N/A   Overcast
11:35 AM 37.8 °F 26.8 °F 32.0 °F 80% 29.65 in 10.0 mi NW 23.0 mph 27.6 mph N/A   Overcast
11:55 AM 37.9 °F 27.6 °F 32.0 °F 79% 29.66 in 10.0 mi NW 20.7 mph 28.8 mph N/A   Overcast
12:15 PM 36.9 °F 27.1 °F 31.1 °F 80% 29.67 in 10.0 mi NW 17.3 mph 25.3 mph N/A   Overcast
12:35 PM 35.6 °F 25.2 °F 30.2 °F 81% 29.68 in 10.0 mi NW 18.4 mph - N/A   Overcast
12:55 PM 33.8 °F 21.3 °F 27.9 °F 79% 29.69 in 10.0 mi NW 24.2 mph - N/A   Overcast
1:15 PM 30.2 °F 18.1 °F 27.7 °F 90% 29.69 in 1.0 mi NW 18.4 mph 26.5 mph N/A Snow Light Snow
1:35 PM 29.8 °F 17.0 °F 28.0 °F 93% 29.70 in 1.0 mi NW 20.7 mph 26.5 mph N/A Snow Light Snow
1:55 PM 29.3 °F 16.2 °F 27.0 °F 91% 29.71 in 1.5 mi NNW 20.7 mph 31.1 mph N/A Snow Light Snow
2:15 PM 28.9 °F 15.1 °F 25.7 °F 88% 29.72 in 1.8 mi NW 23.0 mph 28.8 mph N/A Snow Light Snow
2:35 PM 29.3 °F 15.3 °F 22.8 °F 77% 29.72 in 10.0 mi NNW 24.2 mph 29.9 mph N/A   Overcast
2:55 PM 29.3 °F 15.3 °F 22.3 °F 75% 29.73 in 10.0 mi NW 24.2 mph 35.7 mph N/A   Overcast
3:15 PM 29.1 °F 15.1 °F 21.4 °F 73% 29.74 in 10.0 mi NW 24.2 mph 33.4 mph N/A   Overcast
3:35 PM 29.3 °F 15.6 °F 21.9 °F 74% 29.74 in 10.0 mi NW 23.0 mph 28.8 mph N/A   Overcast
3:55 PM 28.4 °F 13.0 °F 20.5 °F 72% 29.74 in 10.0 mi NW 28.8 mph 35.7 mph N/A   Overcast
4:15 PM 28.2 °F 14.5 °F 19.9 °F 71% 29.74 in 10.0 mi NW 21.9 mph 34.5 mph N/A   Scattered Clouds
4:35 PM 28.4 °F 12.5 °F 19.0 °F 68% 29.75 in 10.0 mi NW 31.1 mph 38.0 mph N/A   Scattered Clouds
4:55 PM 27.5 °F 11.8 °F 18.7 °F 69% 29.76 in 10.0 mi NW 28.8 mph 35.7 mph N/A   Scattered Clouds
5:15 PM 26.6 °F 11.1 °F 18.0 °F 70% 29.77 in 10.0 mi NW 26.5 mph 34.5 mph N/A   Mostly Cloudy
5:35 PM 26.2 °F 11.9 °F 17.4 °F 69% 29.79 in 10.0 mi NW 21.9 mph 29.9 mph N/A   Overcast
5:55 PM 25.2 °F 9.8 °F 16.9 °F 71% 29.80 in 10.0 mi NW 24.2 mph 32.2 mph N/A   Overcast
6:15 PM 24.3 °F 9.3 °F 16.0 °F 71% 29.82 in 10.0 mi NW 21.9 mph 29.9 mph N/A   Mostly Cloudy
6:35 PM 23.7 °F 7.5 °F 14.7 °F 69% 29.84 in 10.0 mi NW 25.3 mph 34.5 mph N/A   Scattered Clouds
6:55 PM 22.8 °F 7.7 °F 14.0 °F 69% 29.84 in 10.0 mi NW 20.7 mph 28.8 mph N/A   Scattered Clouds
7:15 PM 22.6 °F 9.6 °F 14.4 °F 71% 29.85 in 10.0 mi NW 15.0 mph 25.3 mph N/A   Clear
7:35 PM 22.3 °F 5.0 °F 13.1 °F 68% 29.86 in 10.0 mi NW 27.6 mph 32.2 mph N/A   Mostly Cloudy
7:55 PM 21.0 °F 4.3 °F 12.0 °F 68% 29.87 in 10.0 mi NW 24.2 mph 33.4 mph N/A   Scattered Clouds
8:15 PM 20.5 °F 6.9 °F 12.7 °F 72% 29.88 in 10.0 mi NW 15.0 mph 26.5 mph N/A   Clear
8:35 PM 20.7 °F 2.2 °F 11.7 °F 68% 29.89 in 10.0 mi NW 29.9 mph 38.0 mph N/A   Mostly Cloudy
8:55 PM 19.0 °F 3.2 °F 10.8 °F 70% 29.89 in 10.0 mi NW 19.6 mph 32.2 mph N/A   Scattered Clouds
9:15 PM 18.7 °F 2.3 °F 10.6 °F 71% 29.90 in 10.0 mi NW 20.7 mph 29.9 mph N/A   Scattered Clouds
9:35 PM 18.5 °F 3.3 °F 11.5 °F 74% 29.90 in 10.0 mi NW 17.3 mph 25.3 mph N/A   Scattered Clouds
9:55 PM 17.2 °F 0.8 °F 9.3 °F 71% 29.92 in 10.0 mi NW 19.6 mph 25.3 mph N/A   Scattered Clouds
10:15 PM 16.5 °F 1.3 °F 9.5 °F 74% 29.92 in 10.0 mi WNW 16.1 mph 26.5 mph N/A   Clear
10:35 PM 16.5 °F 0.8 °F 10.2 °F 76% 29.92 in 10.0 mi WNW 17.3 mph 24.2 mph N/A   Clear
10:55 PM 16.3 °F -0.4 °F 9.7 °F 75% 29.93 in 10.0 mi WNW 19.6 mph 24.2 mph N/A   Clear
11:15 PM 16.3 °F -0.4 °F 9.3 °F 74% 29.93 in 10.0 mi NW 19.6 mph 24.2 mph N/A   Scattered Clouds
11:35 PM 15.8 °F -0.2 °F 8.8 °F 74% 29.94 in 10.0 mi WNW 17.3 mph 24.2 mph N/A   Clear
11:55 PM 15.8 °F -1.9 °F 9.0 °F 74% 29.95 in 10.0 mi NW 21.9 mph 26.5 mph N/A   Scattered Clouds